Time,TemperatureF,DewpointF,PressureIn,WindDirection,WindDirectionDegrees,WindSpeedMPH,WindSpeedGustMPH,Humidity,HourlyPrecipIn,Conditions,Clouds,dailyrainin,SoftwareType,DateUTC
2013-11-15 00:23:00,39.0,16.0,30.11,SSW,211,2.0,7.0,38,0.00,,,0.00,,2013-11-15 05:23:00,
2013-11-15 00:53:00,39.0,16.0,30.12,SW,217,2.0,8.0,38,0.00,,,0.00,,2013-11-15 05:53:00,
2013-11-15 01:23:00,39.0,15.0,30.11,SW,234,3.0,7.0,37,0.00,,,0.00,,2013-11-15 06:23:00,
2013-11-15 01:53:00,39.0,15.0,30.11,SW,223,2.0,6.0,37,0.00,,,0.00,,2013-11-15 06:53:00,
2013-11-15 02:22:00,39.0,14.0,30.12,WSW,241,1.0,7.0,36,0.00,,,0.00,,2013-11-15 07:22:00,
2013-11-15 02:42:00,38.0,14.0,30.12,SW,218,2.0,5.0,37,0.00,,,0.00,,2013-11-15 07:42:00,
2013-11-15 02:52:00,38.0,14.0,30.12,SW,231,1.0,6.0,37,0.00,,,0.00,,2013-11-15 07:52:00,
2013-11-15 03:22:00,37.0,14.0,30.13,SW,227,0.0,4.0,38,0.00,,,0.00,,2013-11-15 08:22:00,
2013-11-15 03:42:00,37.0,16.0,30.13,SW,227,0.0,3.0,41,0.00,,,0.00,,2013-11-15 08:42:00,
2013-11-15 03:52:00,35.0,15.0,30.13,SW,227,0.0,1.0,44,0.00,,,0.00,,2013-11-15 08:52:00,
2013-11-15 04:22:00,33.0,15.0,30.14,SW,223,0.0,2.0,46,0.00,,,0.00,,2013-11-15 09:22:00,
2013-11-15 04:43:00,33.0,16.0,30.14,SW,219,0.0,3.0,50,0.00,,,0.00,,2013-11-15 09:43:00,
2013-11-15 04:53:00,32.0,15.0,30.15,SW,219,0.0,1.0,50,0.00,,,0.00,,2013-11-15 09:53:00,
2013-11-15 05:23:00,32.0,15.0,30.14,SW,219,0.0,1.0,50,0.00,,,0.00,,2013-11-15 10:23:00,
2013-11-15 05:43:00,32.0,16.0,30.14,SW,219,0.0,2.0,51,0.00,,,0.00,,2013-11-15 10:43:00,
2013-11-15 05:52:00,32.0,16.0,30.15,SW,219,0.0,1.0,51,0.00,,,0.00,,2013-11-15 10:52:00,
2013-11-15 06:22:00,32.0,15.0,30.15,SW,219,0.0,2.0,50,0.00,,,0.00,,2013-11-15 11:22:00,
2013-11-15 06:42:00,32.0,15.0,30.15,SW,219,0.0,2.0,50,0.00,,,0.00,,2013-11-15 11:42:00,
2013-11-15 06:52:00,32.0,14.0,30.16,SW,219,0.0,3.0,47,0.00,,,0.00,,2013-11-15 11:52:00,
2013-11-15 07:22:00,35.0,14.0,30.17,SW,221,0.0,4.0,41,0.00,,,0.00,,2013-11-15 12:22:00,
2013-11-15 07:42:00,35.0,14.0,30.18,SW,227,0.0,5.0,41,0.00,,,0.00,,2013-11-15 12:42:00,
2013-11-15 07:52:00,36.0,15.0,30.18,SW,227,0.0,3.0,41,0.00,,,0.00,,2013-11-15 12:52:00,
2013-11-15 08:11:00,36.0,14.0,30.18,SW,227,0.0,2.0,40,0.00,,,0.00,,2013-11-15 13:11:00,
2013-11-15 08:22:00,36.0,15.0,30.19,SW,226,0.0,4.0,41,0.00,,,0.00,,2013-11-15 13:22:00,
2013-11-15 08:42:00,38.0,15.0,30.19,SW,221,3.0,10.0,39,0.00,,,0.00,,2013-11-15 13:42:00,
2013-11-15 08:52:00,39.0,14.0,30.19,SW,217,3.0,8.0,36,0.00,,,0.00,,2013-11-15 13:52:00,
2013-11-15 09:22:00,43.0,14.0,30.18,SSW,201,2.0,8.0,31,0.00,,,0.00,,2013-11-15 14:22:00,
2013-11-15 10:43:00,53.0,17.0,30.18,WSW,251,4.0,10.0,24,0.00,,,0.00,,2013-11-15 15:43:00,
2013-11-15 10:53:00,53.0,16.0,30.18,SSW,205,1.0,8.0,23,0.00,,,0.00,,2013-11-15 15:53:00,
2013-11-15 11:23:00,54.0,14.0,30.17,South,182,5.0,9.0,20,0.00,,,0.00,,2013-11-15 16:23:00,
2013-11-15 11:43:00,56.0,16.0,30.17,SSW,205,2.0,8.0,20,0.00,,,0.00,,2013-11-15 16:43:00,
2013-11-15 11:53:00,58.0,17.0,30.16,SSE,168,3.0,7.0,20,0.00,,,0.00,,2013-11-15 16:53:00,
2013-11-15 12:22:00,58.0,15.0,30.15,SSE,167,4.0,10.0,18,0.00,,,0.00,,2013-11-15 17:22:00,
2013-11-15 12:42:00,59.0,16.0,30.14,South,180,2.0,7.0,18,0.00,,,0.00,,2013-11-15 17:42:00,
2013-11-15 12:52:00,59.0,11.0,30.13,SW,219,5.0,12.0,15,0.00,,,0.00,,2013-11-15 17:52:00,
2013-11-15 13:22:00,59.0,14.0,30.13,South,170,3.0,14.0,17,0.00,,,0.00,,2013-11-15 18:22:00,
2013-11-15 13:42:00,59.0,17.0,30.12,SW,216,2.0,8.0,19,0.00,,,0.00,,2013-11-15 18:42:00,
2013-11-15 13:52:00,59.0,14.0,30.12,SSW,202,8.0,14.0,17,0.00,,,0.00,,2013-11-15 18:52:00,
2013-11-15 14:12:00,60.0,16.0,30.11,SSW,200,2.0,12.0,18,0.00,,,0.00,,2013-11-15 19:12:00,
2013-11-15 14:21:00,60.0,16.0,30.11,WSW,250,1.0,16.0,18,0.00,,,0.00,,2013-11-15 19:21:00,
2013-11-15 14:42:00,59.0,16.0,30.10,West,279,2.0,8.0,18,0.00,,,0.00,,2013-11-15 19:42:00,
2013-11-15 14:52:00,60.0,15.0,30.10,West,281,4.0,10.0,17,0.00,,,0.00,,2013-11-15 19:52:00,
2013-11-15 15:22:00,60.0,18.0,30.10,SSW,211,5.0,10.0,19,0.00,,,0.00,,2013-11-15 20:22:00,
2013-11-15 15:42:00,60.0,18.0,30.10,SSW,202,4.0,11.0,19,0.00,,,0.00,,2013-11-15 20:42:00,
2013-11-15 15:52:00,59.0,19.0,30.10,South,188,0.0,8.0,21,0.00,,,0.00,,2013-11-15 20:52:00,
2013-11-15 16:22:00,58.0,21.0,30.11,SW,223,4.0,10.0,24,0.00,,,0.00,,2013-11-15 21:22:00,
2013-11-15 16:43:00,57.0,23.0,30.11,South,176,1.0,9.0,27,0.00,,,0.00,,2013-11-15 21:43:00,
2013-11-15 16:54:00,56.0,23.0,30.11,SW,231,1.0,8.0,27,0.00,,,0.00,,2013-11-15 21:54:00,
2013-11-15 17:24:00,54.0,21.0,30.12,SW,234,3.0,8.0,27,0.00,,,0.00,,2013-11-15 22:24:00,
2013-11-15 17:43:00,54.0,21.0,30.12,SW,217,1.0,6.0,27,0.00,,,0.00,,2013-11-15 22:43:00,
2013-11-15 17:53:00,53.0,21.0,30.12,WSW,243,1.0,9.0,28,0.00,,,0.00,,2013-11-15 22:53:00,
2013-11-15 18:22:00,52.0,20.0,30.14,SW,221,2.0,7.0,28,0.00,,,0.00,,2013-11-15 23:22:00,
2013-11-15 18:52:00,51.0,21.0,30.14,SSW,205,0.0,3.0,30,0.00,,,0.00,,2013-11-15 23:52:00,
2013-11-15 19:22:00,48.0,23.0,30.15,SSW,210,0.0,0.0,37,0.00,,,0.00,,2013-11-16 00:22:00,
2013-11-15 19:42:00,47.0,24.0,30.15,SSW,210,0.0,0.0,40,0.00,,,0.00,,2013-11-16 00:42:00,
2013-11-15 19:52:00,46.0,24.0,30.15,SSW,210,0.0,0.0,42,0.00,,,0.00,,2013-11-16 00:52:00,
2013-11-15 20:12:00,44.0,23.0,30.15,SSW,210,0.0,0.0,44,0.00,,,0.00,,2013-11-16 01:12:00,
2013-11-15 20:22:00,43.0,24.0,30.16,SSW,210,0.0,0.0,46,0.00,,,0.00,,2013-11-16 01:22:00,
2013-11-15 20:42:00,43.0,26.0,30.16,SSW,210,0.0,0.0,50,0.00,,,0.00,,2013-11-16 01:42:00,
2013-11-15 20:52:00,42.0,25.0,30.15,SSW,210,0.0,0.0,51,0.00,,,0.00,,2013-11-16 01:52:00,
2013-11-15 21:22:00,40.0,26.0,30.16,SSW,210,0.0,0.0,57,0.00,,,0.00,,2013-11-16 02:22:00,
2013-11-15 21:42:00,39.0,26.0,30.16,SSW,210,0.0,0.0,60,0.00,,,0.00,,2013-11-16 02:42:00,
2013-11-15 21:52:00,41.0,28.0,30.16,SSW,210,0.0,1.0,60,0.00,,,0.00,,2013-11-16 02:52:00,
2013-11-15 22:22:00,42.0,28.0,30.16,SSW,210,0.0,2.0,58,0.00,,,0.00,,2013-11-16 03:22:00,
2013-11-15 22:44:00,42.0,29.0,30.15,SSW,210,0.0,0.0,59,0.00,,,0.00,,2013-11-16 03:44:00,
2013-11-15 22:55:00,43.0,29.0,30.16,SSW,210,0.0,0.0,58,0.00,,,0.00,,2013-11-16 03:55:00,
2013-11-15 23:24:00,42.0,29.0,30.16,SSW,210,0.0,1.0,60,0.00,,,0.00,,2013-11-16 04:24:00,
2013-11-15 23:43:00,42.0,29.0,30.16,SSW,210,0.0,0.0,59,0.00,,,0.00,,2013-11-16 04:43:00,
2013-11-15 23:53:00,41.0,29.0,30.16,SSW,210,0.0,0.0,61,0.00,,,0.00,,2013-11-16 04:53:00,